Showing default

GONETS M 11 (M21), 40552

Orbit data source: Space-Track

GONETS M 11 (M21), 40552 is a payload satellite owned by Gonets (CIS) in LEO that was launched on Tue, 31 Mar 2015 UTC via an ROKOT launch vehicle from the Plesetsk Missile And Space Complex (PKMTR). Payload-class satellites include a variety of spacecraft equipped with specific instruments for various scientific and technological missions. These include communications satellites like Starlink; space stations such as the ISS; scientific satellites like the Hubble; Earth observation satellites from companies like Planet Labs, Umbra, and HawkEye 360; GPS; miniature CubeSats for education and research; and military/defense satellites.

Loading next visibility...
Identifier
40552, 2015-020A
Orbit
LEO
Country
Flag of CISCIS
Related business
Manufacturer
Resehetnev ISS
Mission
Operational Commercial Communications
Bus & Motor
STRELA-3M, Unknown motor
Mass
225 kg wet, 225 kg dry
Launch date (UTC)
2015-03-31 (11 years ago)
Launch vehicle
ROKOT
Launch site
Plesetsk Missile And Space Complex (PKMTR)
Object type
Payload
Rocket body
Debris
Shape & HBR
Cyl + 1 Ant, 3.5 m
Radar Cross Section
1.798 m², Large (>1 m²)

Expand to show TLE details & history
Last TLE update: 7 hours ago

TLE from 7 hours ago
0 GONETS M 11 (M21)
1 40552U 15020A   26237.47775565 -.00000052  00000-0 -44463-3 0  9993
2 40552  82.4912 347.8164 0015980 207.6062 152.4170 12.42880174517340
Epoch: 2026-08-25T11:27Z
TLE epoch observation values (Epoch: 2026-08-25T11:27:58.088Z)
Latitude
-0.00006°
Longitude
-157.92018°
Altitude
1,508.273 km
Speed
7.106 km/s
True Right ascension
23h 11m 15s
True Declination
0° 00' 00"
Sunlit
Object was in full shadow at epoch
Visualization orbit readout
Latitude
Unknown
Longitude
Unknown
Altitude
Unknown
Speed
Unknown
Apparent Right ascension
Unknown
Apparent Declination
Unknown
Sunlit
N/A
Visualization observer readout
Local Sidereal Time
09:44:00
Azimuth
Unknown
Elevation
Unknown
Doppler factor
Unknown
Orbital elements
Apogee altitude
1,504.345 km
Perigee altitude
1,479.193 km
Semi-major axis
7,869.906 km
Eccentricity
0.0016
Inclination
82.4912°
RAAN
347.8164°
Arg. of periapsis
207.6062°
True anomaly
152.50164°
Mean anomaly
152.417°
Eccentric anomaly
152.45933°
Mean motion
3.10877 °/min
Orbital period
115.8 mins
BSTAR
-0.00044463
Loading maneuver chart data...
Computing Atmospheric mass density...
Loading historical data...
Loading historical data...
Loading historical data...
Loading historical data...
Loading historical data...
Loading historical data...
Loading historical data...

Documentation

Showing up to 5 results
|